Wind_Gust
6 3 1 1 5 3 3 10 8 10 6 9 7 7 17 3 7 9 11 6 11 4 4 7 3 5 6 7 11 13 10 9 7 21 16 9 6 12 15 19 16 18 20 18 17 17 18 18 20 22 22 25 24 24 24 25 25 24 25 24 23 22 21 22 23 22 21 22 22 22 22 23 23 23 23 24 25 24 23 25 24 24 23 23 23 23 23 23 24 24 24 23 23 23 22 22 21
3 2 1 1 2 3 6 6 9 4 7 7 17 4 12 4 2 11 7 2 6 5 4 2 9 12 10 13 16 7 11 11 6 6 6 4 11 13 15 19 17 21 19 19 17 17 16 17 20 22 24 25 24 24 23 24 26 26 26 25 24 23 23 23 22 22 22 22 22 22 22 22 23 23 24 24 23 22 21 24 25 25 23 23 23 23 24 24 24 23 23 23 22 22 22 21 20
2 4 2 5 7 8 6 8 7 3 4 11 15 15 3 4 13 10 4 7 7 8 6 8 3 3 3 3 6 5 3 6 10 6 11 6 17 10 13 16 14 18 19 17 17 16 15 16 19 21 25 24 24 24 23 24 25 26 25 24 24 24 23 22 21 20 20 20 20 19 20 20 21 22 22 23 21 22 21 21 23 23 23 22 22 23 23 23 23 23 23 22 21 21 20 20 18
6 2 6 7 6 9 8 6 8 13 6 13 13 11 10 7 12 2 7 9 9 9 7 6 7 7 3 12 6 5 10 7 4 10 22 16 9 13 15 14 14 16 16 16 16 15 14 18 19 22 25 24 24 24 22 23 23 24 24 22 23 22 20 21 20 20 19 19 20 19 19 20 21 22 23 22 19 18 18 19 20 23 22 22 22 21 22 22 22 22 22 22 22 21 21 19 17
1 2 3 6 12 5 8 7 7 8 15 12 10 7 6 6 7 6 6 8 11 11 8 7 6 7 5 7 2 6 8 8 9 4 16 6 11 14 14 15 16 17 16 16 16 15 15 22 19 21 23 25 23 23 23 23 23 23 23 22 22 22 21 20 19 19 18 19 19 19 19 20 20 21 22 19 15 17 17 18 19 20 20 21 20 20 20 20 21 21 21 22 21 21 20 18 16
6 3 5 5 5 8 13 5 4 10 13 8 6 10 4 6 5 8 13 10 14 7 7 5 6 5 10 9 6 6 8 10 8 5 12 10 15 16 15 14 16 17 15 15 15 14 16 19 19 20 21 23 23 23 23 22 22 22 22 22 22 22 21 20 19 19 19 19 18 19 18 19 19 20 19 17 16 16 17 17 19 20 20 21 20 21 20 20 21 20 21 21 21 20 18 16 14
6 8 10 7 7 12 10 6 8 11 15 7 11 15 13 11 10 8 13 17 5 2 4 5 11 11 12 7 8 6 7 5 9 8 6 14 15 15 14 16 17 17 16 15 14 14 17 19 19 20 21 23 23 22 22 22 22 21 21 21 21 21 20 19 18 19 18 18 18 18 18 18 18 18 18 18 17 17 17 19 21 21 20 19 20 20 19 20 20 21 21 21 19 18 17 15 13
2 5 5 8 6 4 3 4 11 9 12 9 6 11 15 16 8 10 13 3 16 9 5 10 6 10 3 4 8 5 12 8 12 15 17 15 15 14 14 17 18 17 16 15 13 12 19 19 19 20 21 21 22 22 22 22 21 20 20 20 20 19 19 19 18 17 16 18 18 17 18 18 18 18 17 18 18 17 18 20 21 19 19 19 19 19 19 19 19 19 19 18 18 17 16 16 14
7 12 3 10 4 5 3 9 13 5 13 10 17 15 19 16 11 10 14 9 8 4 5 9 4 9 8 7 5 5 7 8 15 19 17 16 15 15 15 15 20 19 16 14 13 12 14 17 18 20 21 21 22 22 21 21 20 20 19 19 19 16 16 17 17 17 15 15 16 18 18 18 18 17 16 17 17 17 18 18 18 19 18 17 18 19 19 19 18 18 18 17 17 17 16 15 14
6 5 5 9 8 4 5 15 4 9 8 6 10 19 15 17 16 9 16 12 12 5 3 6 3 12 12 10 6 3 5 10 18 18 14 14 14 14 13 13 15 20 17 15 14 14 14 19 18 19 19 20 20 20 20 19 19 19 18 18 17 15 15 15 14 15 15 16 15 16 17 17 17 16 16 17 18 18 17 18 18 19 17 16 16 16 17 18 17 17 17 16 16 16 16 15 15
7 11 6 8 4 4 9 13 8 10 7 10 16 17 15 15 10 20 8 10 5 9 5 12 12 15 9 8 7 5 10 11 19 20 14 14 13 15 13 12 16 16 19 16 14 14 15 15 20 18 18 19 19 18 18 18 18 17 16 16 15 16 16 14 15 17 15 15 16 16 16 16 16 17 17 17 17 17 17 18 18 18 16 16 16 16 16 16 16 16 16 15 15 15 15 14 15
6 5 6 6 7 12 10 9 9 13 11 7 13 9 2 8 8 14 9 4 5 5 11 7 19 16 12 9 7 7 10 9 11 15 14 12 13 11 14 14 13 13 16 17 15 13 13 14 14 19 20 19 18 18 18 19 18 17 16 16 15 15 14 13 14 14 14 14 14 14 15 15 16 17 16 15 15 16 16 17 18 18 16 16 15 15 15 15 15 15 15 16 15 15 15 15 14
9 4 9 9 7 3 4 4 11 6 10 12 7 9 9 11 12 14 13 9 9 12 8 6 21 8 10 8 9 9 10 7 10 12 14 12 12 12 12 14 14 15 15 16 16 14 13 12 14 15 17 20 19 19 19 19 18 17 15 15 14 16 16 15 15 14 13 13 13 13 14 14 15 16 15 15 15 15 15 16 16 16 16 15 15 15 15 14 15 15 15 15 15 15 15 14 13
12 11 10 7 2 4 5 8 3 7 13 9 4 6 11 14 11 10 5 7 5 8 4 17 17 10 9 11 11 11 10 10 13 11 12 11 12 14 13 15 14 15 15 15 16 15 13 12 12 12 17 16 16 19 19 19 17 16 14 14 15 15 14 15 14 13 13 13 15 15 14 15 15 15 15 15 14 14 14 14 15 16 16 15 13 13 13 13 13 14 15 15 14 14 15 14 12
3 5 9 6 5 2 7 10 3 5 14 3 5 7 13 9 8 7 7 9 4 4 13 6 12 11 15 17 14 16 16 14 14 13 13 12 14 15 15 15 15 14 14 15 15 16 14 12 12 12 12 13 14 13 12 17 19 18 16 17 15 14 14 15 15 14 14 13 15 17 16 16 15 15 15 14 14 14 14 14 15 15 15 14 12 12 11 11 12 13 14 15 14 13 13 12 11
8 9 7 7 9 7 13 6 3 2 21 2 7 6 13 13 7 11 10 6 10 5 5 15 4 7 7 14 12 22 17 16 14 15 15 14 14 13 15 15 15 14 14 15 15 14 14 13 12 13 13 13 13 12 12 13 18 20 18 16 16 16 16 15 14 14 15 15 16 16 17 14 13 13 16 14 15 15 14 12 14 14 14 14 13 12 11 9 10 12 13 14 13 13 13 12 10
4 10 5 6 10 7 10 9 9 11 11 8 7 12 17 21 9 8 7 12 14 4 5 5 7 5 16 7 20 23 18 18 17 18 16 16 16 16 14 14 15 14 13 13 12 14 13 14 14 13 13 14 13 12 12 12 15 19 16 17 18 17 16 16 15 15 14 13 12 14 11 10 8 9 10 10 13 10 11 14 14 14 13 13 13 11 10 9 9 10 12 13 12 12 11 10 8
6 9 10 6 12 6 10 10 14 4 7 11 19 7 9 15 14 8 6 12 7 6 9 6 13 13 12 11 24 21 19 21 20 21 20 20 16 19 17 18 19 19 16 14 11 13 14 13 14 14 14 14 13 12 10 10 12 13 8 10 11 13 14 14 12 11 11 9 15 13 10 8 9 8 8 11 9 11 12 15 15 14 13 13 13 12 10 9 9 9 11 11 11 10 11 8 6
8 7 8 18 10 14 9 6 6 7 10 12 17 6 5 9 6 9 4 4 5 8 8 8 14 16 17 19 23 21 22 21 21 19 21 21 19 21 20 19 17 18 16 14 15 14 13 13 14 14 13 14 13 11 10 9 10 8 8 9 11 12 12 13 10 12 9 10 11 11 11 8 6 8 7 10 9 12 13 14 14 14 13 13 13 12 11 9 8 9 10 10 10 10 9 7 5
8 12 9 19 8 5 6 4 9 6 10 15 16 7 8 13 8 3 5 4 5 9 15 10 14 17 21 21 24 23 21 21 20 21 21 21 19 20 17 20 20 20 16 15 17 12 13 13 14 13 15 14 13 12 10 10 10 8 9 9 9 10 10 11 10 10 10 10 11 10 9 7 6 6 12 16 13 9 11 13 15 13 14 13 13 9 10 9 8 8 9 10 8 7 8 6 6
7 7 17 13 6 7 6 4 8 11 5 9 9 10 14 10 7 5 4 6 7 9 12 13 22 24 24 27 27 23 22 21 20 19 20 19 16 16 16 17 18 18 17 14 12 17 14 14 14 14 13 13 13 13 13 11 10 10 9 10 11 10 10 10 9 9 10 10 10 9 8 6 7 7 9 9 8 9 8 8 8 8 7 7 9 7 6 5 5 5 5 7 7 7 9 7 7
9 16 13 4 4 7 5 6 10 9 5 4 7 11 13 7 5 4 8 7 12 14 15 10 19 25 30 27 26 21 18 22 23 20 20 20 19 17 13 13 11 12 13 14 16 16 16 15 15 14 13 13 13 13 13 14 13 11 10 12 12 9 10 10 9 9 10 9 8 8 7 7 8 9 8 8 8 8 9 8 7 7 7 6 6 6 3 3 4 4 4 7 7 6 7 8 6
10 11 9 8 9 12 5 8 12 7 12 10 11 7 6 7 11 8 7 13 9 5 8 11 17 23 20 25 28 25 22 23 23 23 22 21 19 15 17 17 20 21 17 11 16 14 17 15 16 14 14 14 13 12 12 11 11 10 10 11 12 11 9 10 9 8 9 9 7 7 8 7 8 8 8 8 8 7 7 7 7 7 8 7 4 4 4 3 3 3 5 7 6 6 6 6 6
7 21 2 5 4 9 9 12 13 11 6 14 12 8 11 11 9 7 8 13 5 3 11 17 19 16 22 26 24 27 27 25 22 17 15 16 18 23 14 17 17 14 14 12 14 16 16 18 15 14 15 15 14 13 11 12 11 12 13 15 11 13 11 10 9 9 8 8 6 5 7 7 9 9 8 8 8 7 7 6 7 8 7 6 5 3 4 4 4 4 5 7 8 7 7 6 6
9 16 3 7 7 8 7 8 11 12 13 11 5 9 15 9 9 2 9 14 2 8 10 18 20 20 17 20 21 20 18 16 17 17 13 15 16 18 21 17 10 13 18 14 15 18 15 19 16 17 17 15 13 13 12 11 11 10 11 12 12 13 10 9 10 8 8 6 6 7 7 9 8 8 9 8 8 8 7 6 6 6 6 5 4 5 4 4 3 4 6 8 7 7 7 8 7
12 11 7 8 10 9 7 8 11 14 15 4 7 12 16 5 10 6 12 4 6 10 13 17 21 24 21 21 19 20 20 22 20 23 20 17 17 19 18 14 11 16 18 15 15 16 13 18 22 20 17 17 14 12 11 12 11 12 11 11 11 12 11 10 11 9 7 7 7 7 7 8 8 8 8 7 8 6 6 6 5 5 4 4 3 5 3 4 4 4 6 7 9 8 8 7 8
6 5 6 10 11 8 5 6 9 6 7 4 8 14 18 4 8 14 3 4 10 14 15 16 20 23 21 20 18 18 22 25 28 21 14 18 15 18 22 22 16 16 18 16 16 17 16 18 19 18 14 15 12 12 12 12 12 12 11 11 11 10 10 10 8 8 7 6 7 7 7 7 8 7 8 8 6 6 6 6 5 4 4 4 3 4 4 4 4 5 6 7 8 8 8 7 8
4 8 6 7 8 5 8 6 13 4 12 7 10 12 9 4 5 13 9 10 12 19 19 22 19 19 16 18 17 16 19 17 17 16 20 21 26 24 28 29 24 18 21 19 18 17 18 19 19 16 14 13 13 13 13 13 13 13 12 11 11 11 10 8 8 7 9 7 7 7 7 7 8 7 8 7 7 6 6 6 5 5 4 4 4 4 4 4 5 7 7 7 7 8 9 9 8
7 2 8 9 9 15 3 10 9 6 13 3 7 5 13 4 7 11 8 12 10 15 21 21 16 15 14 15 15 16 17 16 18 20 23 25 27 23 22 22 24 20 19 19 17 19 21 19 16 15 14 14 14 14 14 13 12 12 12 11 12 11 10 8 8 8 8 7 7 7 7 7 7 9 7 7 7 6 5 5 5 5 5 4 4 5 6 5 6 7 7 6 9 9 9 9 10
3 2 4 10 9 14 8 4 5 2 11 6 8 16 13 14 14 5 12 15 10 14 17 21 15 13 13 14 16 15 14 15 21 24 21 20 21 20 23 21 20 20 19 19 15 20 19 14 12 12 14 13 14 13 14 13 11 11 10 10 11 12 11 9 8 7 8 8 8 7 8 7 7 7 9 7 8 8 6 6 5 5 5 5 5 7 6 7 7 7 5 7 9 9 9 7 9
6 8 3 8 5 13 9 5 3 3 5 5 5 11 16 14 17 5 10 18 21 20 20 20 19 14 14 15 15 16 18 20 24 20 16 14 14 11 17 18 17 17 15 16 18 18 15 12 11 10 15 12 13 13 13 13 10 11 11 10 10 10 10 9 8 8 9 8 8 8 8 7 7 7 7 9 7 7 7 7 5 5 6 5 5 5 8 7 6 7 5 9 8 9 9 10 11
5 6 14 9 5 12 17 10 2 5 7 3 8 7 13 13 16 6 10 14 16 19 20 21 21 19 16 14 16 19 20 16 18 15 14 21 22 21 24 21 19 19 19 14 9 10 11 10 10 11 13 12 11 11 10 12 11 10 10 10 10 9 10 9 9 9 9 8 8 9 8 7 7 7 7 8 8 6 7 7 7 6 7 6 5 5 6 7 7 7 7 6 9 8 10 11 11
10 4 6 10 3 9 12 1 6 5 8 3 5 13 9 11 9 4 9 15 13 17 18 19 20 20 19 17 15 20 18 15 12 14 24 23 24 25 25 20 20 21 20 19 7 10 9 13 11 12 13 12 11 9 9 8 9 9 8 9 9 10 9 9 8 8 9 8 7 9 9 8 7 7 8 8 9 7 6 6 6 6 7 7 6 6 7 6 8 8 7 8 6 8 11 12 12
7 4 6 6 6 8 8 15 2 8 4 6 7 5 9 12 18 3 6 14 12 12 19 20 20 19 20 19 18 18 18 12 20 24 26 24 24 23 17 12 11 13 11 15 12 9 9 9 13 14 11 11 10 11 9 9 9 8 8 9 8 9 8 8 9 9 8 8 8 8 8 8 8 8 8 8 7 5 6 6 7 7 8 6 5 7 7 7 8 7 8 8 8 8 11 13 13
5 3 4 9 4 5 9 6 8 12 3 6 5 4 11 16 15 3 10 12 14 16 19 20 22 19 19 20 19 15 10 16 20 19 24 25 24 26 27 23 16 16 18 21 26 21 20 15 14 16 15 12 11 10 9 9 9 8 7 9 9 8 7 7 7 8 9 8 8 7 7 7 8 8 7 6 9 8 7 8 9 7 8 9 6 8 7 8 8 7 7 8 9 9 9 11 14
6 5 3 4 8 14 10 9 9 3 9 14 11 13 13 12 13 5 8 11 17 18 13 12 14 16 15 15 16 12 12 15 15 16 17 17 21 25 28 31 35 32 26 26 24 26 25 21 18 17 15 14 12 11 10 10 10 10 12 10 10 8 7 8 6 7 8 8 7 7 7 7 8 9 9 9 8 8 8 8 9 7 8 9 8 9 7 7 8 9 8 8 11 12 11 10 11
3 3 2 6 8 18 6 5 8 2 9 10 14 8 7 12 14 7 12 11 13 15 11 14 15 16 16 11 16 14 15 17 14 18 20 19 22 25 25 21 27 36 40 38 33 35 31 29 23 18 17 16 14 12 11 12 12 13 9 11 11 9 9 7 6 6 6 7 7 8 8 8 7 8 8 9 8 8 7 8 8 7 7 8 7 7 7 9 9 10 10 8 10 13 9 8 8
3 3 3 12 5 21 9 9 4 8 9 9 3 4 10 15 14 10 8 11 19 21 19 17 18 18 18 15 17 15 15 14 15 14 17 17 19 18 14 19 12 12 13 18 15 22 24 25 23 21 18 17 15 15 14 13 11 12 12 10 9 10 9 8 6 5 6 7 7 7 7 7 7 8 8 7 7 8 9 9 8 9 9 8 7 6 6 9 10 11 10 9 5 10 10 7 6
2 5 4 9 15 11 10 9 2 2 7 14 5 9 18 20 18 7 12 19 24 28 26 27 25 20 18 19 19 18 20 17 15 19 19 18 19 13 11 15 8 4 6 9 8 11 15 19 20 20 18 18 16 15 14 14 11 11 11 11 12 10 5 5 5 5 4 6 4 6 8 8 8 7 8 9 9 9 9 10 9 7 7 9 9 8 7 8 10 11 9 12 11 6 7 6 5
4 2 3 18 6 8 17 9 6 5 8 10 10 14 21 18 11 9 12 19 19 23 25 25 22 25 25 26 28 26 22 19 19 21 20 19 16 11 7 7 8 8 9 9 10 14 15 16 18 19 18 16 16 16 14 12 12 10 8 9 9 8 9 8 5 5 5 6 4 5 5 8 8 8 7 7 7 8 11 12 9 8 7 8 8 9 9 8 10 10 8 8 13 11 9 9 5
4 6 9 13 4 8 13 14 9 9 9 6 7 8 17 9 11 12 9 10 12 16 17 5 10 9 11 13 15 22 25 22 21 19 19 14 10 10 10 9 6 13 12 12 11 11 10 13 17 18 17 16 14 14 14 13 14 12 11 10 9 9 9 7 7 5 4 5 6 4 7 6 7 8 6 6 7 7 6 7 8 8 8 8 8 8 8 10 8 9 9 10 10 12 10 8 8
7 10 17 12 8 11 11 7 7 16 16 6 3 11 14 10 6 11 15 12 11 12 11 9 12 19 20 22 22 19 16 18 23 20 18 15 11 8 11 9 13 15 16 13 8 10 10 9 11 13 13 14 15 14 14 15 15 15 14 14 12 7 9 10 10 10 6 8 8 4 5 4 6 6 5 6 5 6 7 7 7 7 6 8 9 9 8 6 7 9 8 8 8 4 12 10 10
4 18 15 17 16 14 11 6 3 5 7 6 5 7 22 14 9 8 12 8 11 8 9 11 17 20 21 23 23 22 23 19 15 15 15 14 13 15 16 15 19 19 13 11 10 9 12 11 11 10 12 13 13 13 13 14 14 13 15 15 12 12 14 8 4 5 9 5 7 8 6 4 4 7 4 5 5 5 6 7 7 7 7 7 7 7 8 10 10 11 7 7 7 7 8 10 11
13 9 13 11 10 9 13 5 8 14 5 10 3 7 11 19 15 6 10 5 6 3 7 16 21 21 19 22 21 21 22 20 21 20 19 17 22 30 30 28 23 20 11 10 11 11 14 13 12 11 11 12 11 13 12 13 15 12 10 9 11 11 11 10 6 6 5 7 8 6 7 5 4 4 6 5 6 6 7 7 6 7 8 7 8 8 8 8 7 7 7 7 7 8 8 10 9
18 4 12 12 15 15 7 9 9 7 2 18 9 1 7 10 12 9 8 3 9 5 4 13 21 21 18 18 21 21 21 23 21 21 20 24 28 22 13 12 10 8 9 10 11 13 14 15 14 12 12 11 10 11 11 9 11 12 12 12 10 5 7 8 8 7 8 7 9 5 6 5 5 4 4 5 6 7 8 8 7 7 8 7 8 7 5 7 8 8 7 6 8 7 8 6 9
13 10 5 5 4 3 7 6 5 4 5 14 7 4 9 17 13 11 7 6 7 4 7 10 19 20 19 19 16 18 18 20 17 18 21 23 20 16 16 9 9 9 6 9 11 14 15 15 14 14 13 11 11 10 10 10 9 11 12 11 12 9 9 9 10 9 8 7 9 5 5 6 6 6 4 4 5 6 7 8 9 9 8 8 7 7 6 6 6 8 9 8 8 8 6 8 11
5 9 6 3 9 5 5 7 5 6 9 19 9 8 7 13 9 5 4 6 6 9 7 11 15 14 14 14 16 19 20 21 19 18 20 22 13 7 6 11 8 9 6 8 10 13 13 13 13 13 11 9 9 10 9 10 9 10 12 11 12 12 10 12 12 9 9 8 10 6 6 5 3 6 4 4 3 4 5 6 7 8 7 7 8 7 7 8 8 8 7 5 6 8 8 7 4
3 8 4 3 4 9 6 7 8 8 18 15 5 13 8 13 11 12 10 12 9 13 14 21 20 21 19 21 19 20 17 19 20 19 18 14 6 5 7 7 8 9 7 8 8 12 13 13 13 12 10 10 9 9 9 10 10 9 9 11 12 12 13 13 14 12 10 10 10 9 5 7 4 4 3 4 3 3 5 5 5 5 7 6 8 7 6 6 6 5 6 8 7 6 6 8 7
7 6 6 5 8 6 8 5 9 12 22 8 4 10 6 14 14 6 11 14 14 10 16 20 23 20 17 19 20 23 21 20 21 20 17 13 14 9 7 8 9 10 9 7 9 11 13 13 12 12 10 9 10 9 9 9 9 9 10 10 10 12 13 13 13 13 9 12 11 10 9 9 8 7 4 6 2 3 4 7 7 8 7 7 5 5 5 6 7 7 8 7 7 8 9 8 9
11 11 11 9 6 5 7 10 8 11 16 9 3 3 8 8 10 5 14 15 15 13 13 14 17 17 19 18 19 22 23 21 22 19 13 10 13 8 6 8 10 10 10 8 9 10 11 13 12 13 9 9 9 10 11 11 10 10 9 11 12 13 12 13 13 14 10 11 12 13 12 13 11 10 8 6 6 2 3 3 5 7 5 5 5 6 7 6 6 8 7 7 8 8 7 8 8
19 7 22 19 18 18 11 12 14 13 15 5 5 9 12 3 8 9 10 13 11 9 10 8 10 11 13 16 18 18 18 19 20 15 15 20 19 13 12 11 11 11 11 10 9 11 12 13 15 15 10 8 11 12 11 11 11 11 10 10 13 11 13 13 13 14 14 12 9 12 10 10 11 9 10 7 5 5 4 5 5 6 5 5 5 6 7 7 7 6 5 5 4 6 7 7 7
5 8 11 10 13 14 12 13 8 6 5 5 7 9 3 9 4 7 9 9 5 6 9 11 10 9 12 17 19 19 18 19 14 12 12 11 12 13 14 13 13 13 12 11 12 12 12 12 13 13 13 8 7 9 8 10 10 10 9 10 10 10 10 11 11 10 10 12 11 12 10 8 8 9 4 6 4 6 5 6 6 6 5 5 5 6 6 6 7 8 6 6 6 5 7 7 7
10 9 13 16 6 16 11 4 3 7 9 10 4 9 8 11 6 4 11 9 7 7 9 12 9 7 10 11 13 12 16 17 18 15 13 13 13 14 13 12 13 13 11 11 11 14 13 12 13 13 11 8 8 7 9 7 8 9 8 10 10 10 12 13 14 12 11 8 8 8 10 6 6 6 7 4 6 3 5 6 7 6 5 5 6 6 6 6 6 7 8 8 7 6 7 8 7
14 10 15 4 6 9 12 12 8 5 10 15 3 3 8 6 11 5 7 6 7 10 6 10 10 12 11 18 18 17 21 19 19 20 20 19 18 16 14 12 12 13 12 13 12 12 12 10 12 13 11 11 7 8 9 9 9 8 8 9 7 9 11 10 11 12 9 10 6 7 7 8 6 5 6 5 5 5 5 5 7 5 6 7 6 6 6 5 6 7 7 7 6 6 6 4 5
15 10 9 13 10 7 8 12 6 6 9 10 4 2 7 7 11 5 3 5 6 8 12 11 14 15 15 13 15 17 18 19 19 18 17 19 15 14 14 13 14 13 15 14 12 13 11 9 10 12 12 10 10 9 10 11 10 9 10 10 11 9 7 8 8 9 9 10 9 7 7 7 7 6 8 7 6 6 6 5 5 6 6 7 6 6 4 5 4 6 5 7 5 6 6 5 4
3 5 9 2 10 6 9 14 10 13 7 5 10 4 11 14 11 4 6 5 8 9 9 13 10 13 13 11 12 15 22 20 16 17 18 18 14 12 13 13 13 13 14 15 13 13 12 10 14 16 18 17 18 19 17 15 9 12 11 10 8 9 9 10 9 11 12 10 10 9 9 7 8 7 7 6 7 6 6 6 6 8 7 6 7 5 5 5 6 6 5 6 5 6 6 5 4
4 7 6 5 6 7 10 4 5 8 14 11 10 8 16 11 6 3 5 7 10 8 9 12 15 10 11 12 12 10 16 11 16 18 17 16 15 12 11 12 13 11 12 12 14 14 14 15 18 17 17 17 19 18 16 14 12 10 11 11 10 9 10 10 10 8 10 11 9 8 7 8 7 7 8 8 7 7 6 7 7 7 7 6 5 5 4 6 6 7 7 6 5 7 8 4 5
10 15 11 12 9 8 7 12 3 6 10 11 11 15 14 11 6 3 6 9 13 12 14 14 12 12 12 14 18 12 15 11 11 14 15 14 13 11 12 13 13 13 12 12 13 14 15 15 17 17 18 20 21 18 16 13 8 12 11 10 9 8 10 11 10 9 9 10 10 9 9 7 7 6 7 9 8 6 6 7 7 7 7 7 6 5 4 5 7 7 6 5 6 6 7 6 5
Wind_Speed
3 2 0 0 2 2 1 4 2 2 2 4 3 2 5 2 3 5 6 3 3 1 1 3 2 2 2 3 6 7 4 4 3 8 6 0 3 5 10 13 11 12 13 10 10 10 12 14 16 18 18 20 19 19 19 20 20 20 20 19 18 17 16 17 16 16 17 17 17 17 18 18 19 18 19 19 20 19 18 19 18 19 18 18 19 19 18 19 19 18 18 17 18 17 17 17 16
2 1 1 0 0 1 1 1 4 2 4 3 8 2 6 1 1 7 3 1 2 0 3 1 2 7 7 6 10 4 5 5 3 2 2 2 7 5 9 12 12 14 11 10 10 10 10 12 17 18 20 20 19 20 19 20 21 21 21 20 19 18 18 18 17 17 17 16 17 17 17 18 18 18 19 19 19 18 17 18 19 19 18 19 19 19 19 18 18 18 18 17 17 17 16 16 15
1 2 1 2 3 3 2 3 1 1 2 4 7 7 1 1 8 1 2 4 4 5 4 6 1 1 1 2 2 2 1 1 5 2 4 4 9 5 9 11 10 12 12 9 9 10 9 11 16 17 21 19 19 19 19 20 20 21 20 19 19 19 18 18 17 17 15 15 16 15 16 16 16 16 18 19 18 18 17 17 19 18 18 18 18 18 18 18 17 17 17 17 16 16 15 15 14
3 1 3 3 0 3 2 3 4 7 2 7 6 6 4 4 4 1 4 6 5 6 2 2 3 2 0 5 1 1 5 3 1 5 6 6 2 7 8 10 10 9 9 9 9 9 8 12 16 18 20 20 20 19 18 19 19 20 19 18 18 17 16 17 16 15 15 15 15 15 15 16 17 16 18 18 15 15 15 15 17 18 18 18 17 17 17 17 17 17 17 16 16 15 15 14 13
0 1 1 2 4 1 2 1 3 3 7 4 5 2 3 3 4 4 4 5 7 7 3 2 1 3 2 3 0 1 3 5 4 1 3 3 7 8 9 10 10 10 9 10 9 9 9 18 16 17 19 20 18 18 17 18 18 19 19 18 17 17 17 16 16 15 14 15 14 14 15 15 16 18 18 16 12 14 15 15 15 16 17 17 16 16 16 16 16 16 16 16 16 16 14 13 11
3 1 3 2 0 2 4 1 0 5 6 4 2 3 2 4 3 4 8 7 9 5 5 3 2 0 5 4 1 1 1 2 1 2 3 5 9 11 10 9 10 10 10 9 9 8 9 16 16 16 17 19 19 18 18 17 18 18 18 18 18 17 17 16 15 14 15 15 14 15 15 15 16 16 15 14 13 13 14 13 15 16 17 17 16 16 16 16 16 15 16 16 16 14 13 11 10
1 3 4 3 2 4 4 3 5 6 8 4 4 7 6 7 5 6 7 10 2 0 2 3 6 5 4 1 2 2 4 2 2 2 3 8 10 10 9 9 10 11 10 9 8 8 11 15 16 16 17 18 19 18 17 17 17 17 17 17 17 17 16 16 15 14 14 14 14 15 15 15 15 15 15 14 14 14 14 16 17 16 16 16 16 16 15 15 15 15 15 15 15 13 12 10 9
1 2 1 3 1 1 0 2 6 3 5 5 4 6 9 8 5 4 7 0 6 1 2 5 3 6 1 2 2 2 8 5 8 10 11 9 10 9 9 10 10 10 10 9 7 7 13 15 16 17 17 17 18 18 18 18 17 16 16 16 16 15 15 15 14 13 12 13 14 14 15 15 15 15 14 14 14 14 15 16 17 16 15 16 16 15 15 15 15 15 15 14 13 12 12 11 10
3 5 0 4 1 1 1 5 5 2 6 4 10 8 12 8 6 5 7 4 5 2 2 3 3 5 3 3 1 3 4 4 10 13 12 11 10 10 7 9 11 11 10 9 8 7 9 13 14 16 17 17 18 18 18 17 16 16 15 15 15 13 13 14 14 13 12 11 12 13 14 14 14 14 14 14 14 14 14 14 15 15 15 14 15 15 15 15 15 14 14 13 13 12 12 11 11
2 2 1 2 3 2 2 7 0 5 3 3 5 12 8 8 8 5 9 7 7 3 1 3 1 6 7 5 2 2 1 6 11 12 9 9 9 9 9 8 10 13 11 9 8 8 8 14 14 16 16 16 17 16 16 15 15 15 14 14 13 12 12 12 11 12 12 12 12 12 13 14 13 13 14 14 14 14 14 15 15 15 14 14 13 14 14 14 14 14 13 13 13 12 12 11 12
0 4 2 3 2 0 4 7 3 5 4 5 10 10 8 7 5 8 3 6 3 4 3 6 6 9 5 4 2 2 5 6 11 12 9 9 8 8 8 8 10 10 12 10 9 9 9 9 16 15 15 15 15 15 14 15 15 14 13 13 12 13 13 11 12 13 12 12 13 13 13 13 13 14 14 14 14 14 14 15 14 14 13 13 13 13 13 13 12 12 13 12 12 12 11 11 12
1 1 2 3 2 6 5 3 5 6 7 4 5 5 0 3 4 6 3 2 3 4 6 5 7 6 6 4 2 3 6 5 7 9 9 7 7 7 9 8 8 8 11 11 10 8 8 9 8 15 16 15 15 15 15 15 15 14 13 13 12 12 12 11 11 11 11 12 11 12 12 12 13 13 12 12 13 13 13 14 14 13 13 13 12 13 13 12 12 12 12 12 12 12 11 11 11
3 1 5 4 2 1 2 2 5 3 5 5 4 3 5 6 6 9 7 6 4 8 2 4 12 3 4 4 3 5 6 5 6 8 8 7 6 6 7 9 9 10 10 10 10 9 9 8 8 9 12 16 16 16 16 15 14 14 13 12 12 13 13 12 12 12 11 11 11 11 11 11 12 12 12 12 12 12 13 13 13 12 11 12 12 12 12 12 12 12 12 12 12 12 11 10 10
4 5 5 1 0 2 2 2 1 3 6 3 2 4 5 4 6 4 1 4 3 4 1 8 8 5 5 5 5 5 5 6 9 7 7 7 6 7 8 9 9 9 10 10 10 10 8 7 7 7 10 10 10 14 15 15 14 13 12 12 12 12 12 12 12 11 11 11 12 12 12 12 12 12 12 12 12 11 12 12 12 12 11 11 11 10 10 11 11 11 12 12 11 11 11 9 9
1 1 3 2 1 0 3 2 1 2 7 1 1 4 7 3 5 4 5 4 1 1 4 2 3 6 5 9 6 8 8 10 8 9 8 8 9 7 8 9 9 9 9 10 9 9 8 7 7 7 8 8 9 7 7 11 16 14 13 14 12 12 12 12 12 12 12 11 13 14 13 13 13 12 12 11 11 11 12 12 12 12 11 10 10 10 9 8 9 11 11 12 11 11 10 9 8
3 4 2 2 4 3 4 2 2 0 9 0 3 4 8 5 2 5 5 3 1 3 2 3 0 1 3 9 5 12 12 11 9 10 9 10 8 7 8 9 9 9 8 9 9 8 8 7 7 7 8 8 8 7 8 9 13 16 15 13 13 13 13 12 12 11 12 12 13 13 12 10 10 9 13 10 12 12 11 9 12 11 10 9 9 9 8 7 7 9 10 11 11 10 10 8 6
2 4 1 2 6 4 3 3 5 3 5 4 3 8 6 9 4 3 1 8 5 1 3 3 2 3 6 2 13 15 11 12 11 12 11 9 8 8 7 7 8 8 6 7 7 7 8 8 9 7 8 9 8 7 7 7 10 14 13 14 14 14 13 13 12 12 11 11 9 11 8 6 6 5 6 6 10 7 10 11 12 11 10 9 9 8 8 7 7 7 9 10 10 10 9 6 5
2 2 4 2 5 2 4 4 6 1 3 6 11 5 6 9 7 3 2 5 4 3 6 4 7 8 6 6 16 14 12 14 13 14 11 11 8 9 8 8 10 10 8 8 6 7 8 7 9 8 8 9 8 6 5 6 7 9 6 6 7 9 10 10 8 6 7 6 11 8 5 4 5 5 5 8 5 7 8 12 12 11 10 9 8 7 8 7 7 7 7 8 8 8 8 4 3
2 2 2 9 4 5 6 2 3 2 6 7 8 4 3 5 3 2 1 1 2 3 4 5 8 9 11 12 15 14 14 13 13 12 14 14 10 12 10 9 10 10 9 7 7 7 6 6 9 8 8 9 8 7 6 5 6 5 5 5 6 8 8 8 6 7 6 6 7 6 5 4 4 5 4 6 6 10 9 12 11 11 10 10 8 7 7 7 7 6 5 7 7 7 5 3 3
3 5 4 9 4 2 4 2 6 4 6 8 10 4 6 8 3 0 1 2 3 5 5 6 7 12 12 13 15 15 14 14 12 13 14 14 12 12 10 11 11 10 9 8 9 6 7 6 9 8 9 9 8 6 6 6 6 5 5 5 5 5 6 6 6 6 6 7 6 6 5 4 4 4 9 13 10 6 7 11 12 11 11 10 9 5 6 6 6 5 6 6 5 4 5 4 4
2 2 7 4 3 2 2 1 5 7 2 5 5 5 8 5 4 0 2 3 4 5 8 7 14 15 16 17 17 15 14 14 13 12 12 13 10 8 8 9 8 9 8 8 7 10 8 7 8 8 8 8 8 7 7 6 6 5 5 6 6 5 6 6 5 6 6 7 6 5 5 4 4 5 6 5 5 5 5 5 5 5 4 4 6 4 3 3 3 3 3 4 5 5 5 4 4
3 8 6 2 2 2 4 4 7 5 4 3 4 7 6 4 2 2 5 4 6 7 8 7 7 15 19 17 15 13 12 15 14 14 13 12 12 9 8 7 7 6 8 8 10 11 10 8 9 8 8 8 8 7 7 8 8 6 6 7 7 5 6 6 5 5 5 6 5 5 4 4 5 5 5 5 5 5 5 5 4 4 4 4 3 3 2 2 2 2 3 5 4 4 4 5 4
3 5 5 4 5 5 2 5 7 5 4 6 6 3 2 4 6 4 4 8 5 2 4 8 10 13 13 16 18 14 14 15 15 15 13 11 8 4 7 8 11 10 8 7 9 7 10 9 10 8 8 8 8 7 7 6 6 6 6 7 7 6 5 6 5 5 5 5 5 4 5 4 5 5 5 5 5 4 4 4 4 4 5 4 3 2 2 2 1 2 3 4 4 4 3 3 4
3 8 1 3 2 5 6 7 8 6 3 7 4 4 4 6 5 2 3 8 4 2 5 11 13 11 12 15 15 17 16 16 13 10 9 7 10 8 5 3 6 5 6 8 7 7 9 11 10 8 8 8 7 7 6 6 6 7 7 8 6 7 6 6 5 5 5 5 4 4 5 4 5 5 5 5 4 4 4 4 4 4 3 3 1 2 2 1 1 1 3 5 5 4 4 4 4
4 7 1 3 3 4 5 5 7 8 8 7 3 5 10 2 4 0 5 8 1 5 7 10 14 14 11 12 14 13 11 10 12 11 7 7 9 10 8 3 3 6 9 8 8 10 10 11 9 9 9 9 7 7 7 6 6 6 6 7 7 7 5 6 5 5 5 4 4 4 4 5 5 5 5 5 5 4 3 3 3 3 2 2 1 2 1 2 1 1 3 4 4 4 4 4 4
5 6 3 5 5 5 5 5 8 10 7 2 3 7 8 2 5 2 8 2 3 6 9 10 14 16 14 14 13 14 13 15 13 12 11 10 11 12 12 8 6 8 9 6 9 9 8 10 11 11 9 9 7 7 6 7 6 7 6 6 6 7 6 6 7 5 3 4 4 4 4 5 5 5 5 4 4 3 3 3 2 2 2 1 1 1 1 1 1 1 3 4 5 5 5 4 4
3 3 4 5 7 4 3 4 6 4 3 2 3 9 4 1 5 6 1 3 6 8 10 10 12 15 14 13 11 12 15 17 16 10 9 10 9 11 11 13 11 10 8 8 8 10 7 10 10 10 8 9 7 7 7 7 7 7 6 6 6 6 6 5 5 5 4 4 4 5 5 5 5 4 5 4 4 4 3 3 2 1 1 1 0 1 1 1 1 2 3 4 5 5 5 4 5
2 4 4 5 5 3 5 4 9 2 4 4 6 8 2 2 1 7 5 7 7 11 13 15 13 12 10 12 11 11 12 11 9 10 13 14 13 12 14 13 15 11 11 10 8 9 8 10 9 8 8 7 7 8 7 8 7 7 7 6 6 6 6 5 5 4 5 4 4 5 4 5 5 4 5 4 5 4 3 3 2 2 1 1 1 1 1 1 2 3 3 4 5 5 5 5 5
4 1 4 6 6 4 2 5 5 3 5 2 5 3 7 0 4 7 3 8 7 9 13 14 10 10 9 10 10 10 11 10 11 12 15 15 11 10 13 7 13 12 8 8 9 10 9 8 7 7 7 7 8 9 8 7 7 7 7 7 7 6 5 4 5 5 4 4 4 5 4 4 4 5 4 5 4 4 3 2 2 2 2 1 1 2 3 2 3 3 3 4 5 5 5 5 5
2 0 1 5 5 7 5 2 2 1 4 3 5 6 7 7 9 3 4 10 7 9 11 13 8 7 7 9 10 9 8 10 13 14 11 9 5 8 10 10 11 11 9 8 9 10 7 6 4 5 7 7 8 7 7 7 6 6 6 5 7 7 6 5 5 4 5 5 4 5 5 4 4 4 5 4 4 4 3 3 2 2 2 2 2 3 3 3 3 4 3 4 5 5 5 4 5
2 3 1 1 3 4 5 1 2 1 2 3 3 4 8 8 9 3 4 9 14 12 12 13 11 7 7 9 9 10 12 12 15 11 4 1 5 3 2 0 5 6 4 7 7 8 7 5 5 5 8 7 8 7 7 7 6 6 6 5 5 6 6 5 5 5 5 5 5 5 5 5 4 4 4 5 4 4 3 3 2 2 3 2 2 2 4 4 3 4 3 5 5 5 5 6 6
2 2 6 4 2 5 11 7 1 0 2 2 4 2 8 8 7 3 5 6 7 11 12 13 13 11 8 8 10 11 12 9 8 2 10 10 14 13 12 12 11 11 11 8 3 4 6 5 6 6 8 7 6 6 6 6 6 5 5 6 5 5 6 5 5 5 6 4 5 5 5 5 5 4 4 5 5 4 4 4 3 3 4 3 2 2 3 4 4 4 3 4 5 5 6 6 5
5 1 4 4 0 4 4 0 5 2 3 2 1 4 4 6 1 2 3 8 7 8 10 12 13 14 11 9 8 12 10 7 3 8 12 15 13 13 9 8 8 8 7 7 4 7 5 9 7 7 8 7 6 6 6 6 5 5 5 5 6 6 6 6 5 5 5 5 5 6 5 5 5 5 5 5 5 5 3 3 3 3 4 4 3 4 4 4 4 4 3 4 4 4 6 7 6
2 1 1 2 3 3 1 9 1 5 3 3 4 1 5 7 11 1 4 8 7 7 11 11 11 11 12 11 10 11 9 5 10 12 15 14 14 16 9 3 6 6 7 9 1 1 5 6 8 8 7 7 6 6 6 6 5 5 4 5 5 5 5 5 5 5 5 5 4 5 5 5 5 5 4 4 5 4 3 3 4 4 4 3 3 4 4 4 4 3 4 4 4 4 5 7 7
1 0 1 4 2 3 4 1 3 8 2 4 4 2 7 11 9 1 6 8 9 10 11 13 12 12 11 11 11 9 5 10 12 10 13 12 15 17 17 16 11 11 11 12 16 15 12 9 8 10 9 8 7 6 6 6 6 5 4 5 5 5 5 4 4 4 5 5 4 4 4 4 5 5 4 4 4 4 4 5 5 5 5 4 3 4 4 4 4 3 4 4 5 5 5 6 8
3 2 1 2 4 5 2 5 5 2 5 8 7 6 7 8 8 3 5 6 10 12 8 7 9 10 10 9 9 7 7 10 9 10 11 10 10 13 15 14 20 19 15 16 16 16 16 13 11 10 9 8 7 6 6 5 5 5 6 5 5 4 4 4 3 4 4 4 4 5 4 4 5 5 5 5 5 5 5 5 5 4 5 5 4 5 4 4 5 5 4 5 7 7 6 5 6
3 2 1 4 5 9 1 3 4 1 2 6 8 6 4 8 9 5 6 7 8 9 6 8 9 10 10 7 10 7 9 10 9 11 11 11 12 13 13 12 7 11 20 25 20 20 19 16 14 12 10 9 8 7 6 7 7 6 5 6 5 5 5 4 3 3 4 4 5 5 5 5 5 5 5 5 5 5 4 5 5 4 4 5 4 4 5 5 4 5 5 4 7 7 5 4 5
2 1 2 7 3 11 0 3 3 4 4 4 1 2 6 9 9 7 4 6 12 13 12 11 12 12 11 10 11 9 8 6 10 8 11 11 10 11 7 10 8 7 4 4 4 4 10 12 13 12 10 10 9 8 7 7 6 5 5 5 5 6 5 4 3 3 4 4 5 4 4 4 5 5 5 4 5 5 5 5 5 5 5 4 4 3 4 5 6 6 6 4 2 6 4 4 3
1 2 2 4 8 5 5 4 1 1 4 8 3 4 10 13 11 5 6 10 11 15 16 17 16 14 11 10 11 10 11 10 8 11 12 11 12 9 6 7 4 2 0 3 2 4 8 10 10 10 10 10 9 9 8 7 6 6 6 5 6 4 3 3 3 3 3 4 3 4 4 4 5 4 5 5 5 5 5 5 5 4 4 5 5 5 4 5 5 7 6 6 6 2 3 3 1
2 1 0 8 1 3 6 4 4 2 0 4 5 7 10 10 7 6 8 10 9 13 15 16 14 15 15 15 16 14 12 11 13 12 12 11 9 7 4 5 4 2 4 5 5 6 6 7 9 9 9 9 9 9 8 7 7 6 5 6 5 4 4 4 3 3 4 4 3 3 3 5 5 5 5 5 4 5 6 6 5 4 4 4 4 5 5 5 6 5 4 5 7 6 3 4 1
2 4 4 6 1 3 6 5 3 5 5 4 3 4 7 4 5 6 5 5 8 9 6 1 2 4 6 7 9 13 15 14 13 11 12 9 6 6 7 6 3 6 6 7 6 6 5 6 8 8 8 9 8 8 8 8 8 7 6 6 6 5 5 4 4 3 3 3 4 3 3 3 4 4 4 4 4 5 4 4 5 4 4 4 4 4 5 5 4 5 5 6 7 7 5 3 4
3 6 10 8 5 7 7 3 3 7 6 2 2 3 4 4 3 7 7 6 5 4 4 5 7 11 12 13 14 12 10 10 13 12 12 10 8 6 8 6 7 8 8 6 5 6 6 6 7 6 6 7 8 9 9 8 8 8 8 7 7 4 5 5 6 6 3 5 5 2 3 2 3 3 3 4 4 4 4 4 4 4 3 4 4 4 3 3 4 5 4 5 5 3 7 6 4
1 8 11 12 10 8 7 3 2 2 1 2 2 3 6 6 4 5 6 5 8 5 4 5 10 12 12 13 13 13 13 11 9 8 10 10 9 10 11 9 11 11 7 7 6 6 8 7 7 6 7 6 7 8 9 8 8 8 9 9 7 7 7 3 1 2 5 3 5 5 4 2 2 4 3 3 4 3 4 4 5 5 4 4 4 3 4 5 5 6 3 4 3 4 5 5 6
4 3 7 7 6 5 6 2 5 6 1 5 2 2 3 7 8 3 7 1 4 2 2 8 10 12 13 14 13 13 13 13 13 13 12 11 13 17 18 18 12 7 6 7 7 7 9 9 8 7 6 6 6 7 8 7 8 7 7 6 6 6 6 5 4 4 3 4 5 4 5 3 3 3 4 3 4 4 4 4 4 4 4 4 4 4 5 4 3 4 4 4 4 4 5 6 5
6 2 7 7 9 9 4 5 5 3 1 8 5 0 0 3 5 5 3 1 5 3 1 7 11 12 11 11 12 13 13 14 14 13 12 14 18 15 9 4 3 5 5 6 7 8 9 9 9 8 7 7 6 7 7 6 7 7 7 7 6 3 4 5 5 4 5 4 6 3 4 4 3 2 2 4 4 5 5 5 5 5 5 5 5 4 4 4 6 5 4 3 4 4 5 4 5
5 5 2 2 2 2 4 4 3 1 1 6 4 1 1 7 6 6 3 2 4 2 4 5 10 12 9 8 10 10 11 12 11 12 14 15 13 9 7 4 6 4 4 5 7 9 9 9 9 9 8 7 7 7 6 7 6 6 7 7 8 6 6 5 5 6 5 4 5 3 3 4 4 2 2 3 4 4 4 5 5 6 5 5 4 5 4 4 4 5 5 5 5 5 4 4 6
3 6 4 2 5 2 3 4 2 3 1 9 6 5 3 4 3 3 1 1 2 6 4 5 9 10 9 7 10 11 11 13 11 11 11 13 3 1 2 3 5 6 4 5 6 8 8 8 8 9 7 6 6 6 6 7 6 6 7 7 8 8 7 8 7 6 6 5 6 4 4 3 2 4 3 1 2 3 4 4 5 5 4 5 5 5 5 5 5 5 4 4 4 5 5 5 3
1 0 1 1 1 4 2 3 4 2 6 8 3 8 5 5 4 6 6 6 5 6 8 9 11 13 11 11 10 11 11 12 11 11 11 8 3 3 4 5 6 6 5 5 5 8 8 8 8 8 7 7 6 6 6 6 6 6 6 7 8 8 9 8 9 8 7 7 6 6 3 4 2 1 2 3 2 2 3 3 3 4 4 4 5 4 4 4 4 4 4 5 4 4 4 5 4
4 2 2 2 2 2 1 1 1 3 6 2 1 4 2 6 6 2 7 9 7 5 8 10 11 10 9 11 13 13 12 13 12 12 10 5 2 3 4 5 6 7 6 5 6 7 8 8 8 8 7 6 6 6 6 5 5 5 7 7 7 7 8 8 8 8 6 7 6 6 5 5 4 4 2 3 2 2 3 4 5 5 4 4 3 4 3 4 4 5 5 5 4 5 5 5 5
6 6 5 4 1 1 1 3 1 4 7 4 2 2 2 3 5 3 8 10 9 8 8 9 10 11 11 11 11 12 13 13 12 11 7 6 4 4 4 5 6 6 7 5 6 6 7 7 6 8 6 6 6 7 7 7 7 7 6 7 7 7 7 8 7 8 6 7 7 7 7 7 7 6 5 4 3 2 2 2 3 4 3 3 4 4 4 4 4 5 4 5 5 5 4 5 5
9 3 10 8 8 5 3 3 4 6 7 2 3 3 3 2 2 3 6 9 7 6 6 5 6 6 7 6 10 11 12 11 11 9 9 12 11 8 7 7 7 7 7 6 5 7 7 8 9 8 7 5 7 8 7 7 7 7 6 6 8 7 7 7 7 8 8 7 6 7 6 6 6 5 6 4 3 3 3 4 3 4 4 4 4 4 4 5 5 4 4 4 3 3 4 4 4
2 3 5 5 5 6 3 4 3 2 1 1 1 1 1 2 2 4 3 6 2 4 3 5 5 2 3 6 9 9 10 10 8 7 6 4 6 8 8 8 8 8 8 7 8 8 8 7 9 9 9 6 4 6 6 7 6 6 6 7 6 7 6 6 6 6 6 7 7 6 6 5 5 5 3 4 2 3 4 4 4 4 4 4 3 4 4 4 5 5 4 3 3 2 4 5 4
3 4 5 8 3 8 5 2 2 4 4 3 0 4 3 5 3 2 6 5 4 0 2 3 3 5 5 6 8 8 5 7 8 2 4 9 8 9 8 8 7 8 6 6 7 9 9 8 8 9 7 6 6 5 6 5 5 5 5 6 7 6 8 8 8 8 7 4 4 4 6 4 4 4 4 2 4 2 3 4 4 4 4 4 4 4 4 4 4 4 5 5 4 4 4 5 4
5 2 7 1 3 5 4 4 2 2 3 4 1 1 4 2 2 2 3 3 4 7 3 7 7 7 7 8 10 9 12 10 10 10 8 9 10 11 9 8 8 9 7 8 6 8 8 7 8 9 8 7 5 6 6 6 7 6 5 6 5 6 7 7 7 8 6 6 3 3 4 5 4 3 4 3 3 3 3 3 4 4 4 4 4 4 4 4 4 4 5 4 4 4 4 2 3
7 3 4 3 1 2 3 4 0 0 1 2 1 1 2 4 4 2 0 3 4 5 8 7 7 6 7 8 8 9 10 9 10 10 10 8 9 9 9 9 9 8 10 9 7 8 7 6 7 8 8 6 6 5 6 6 6 6 6 7 7 6 5 5 5 6 6 6 6 4 5 5 4 3 5 4 4 4 4 4 4 4 4 5 5 4 3 4 3 4 4 5 3 4 4 3 2
2 3 4 1 3 2 3 4 3 4 2 2 4 1 3 5 4 2 3 2 4 5 6 8 6 6 5 6 7 7 7 6 6 8 11 10 8 9 9 8 8 8 9 9 9 8 8 6 7 9 10 10 11 11 9 6 4 7 7 6 4 5 6 7 6 7 7 7 6 6 6 5 5 4 4 4 4 4 4 4 4 5 5 4 5 4 4 4 4 4 3 4 3 4 4 3 2
0 2 1 0 2 2 4 1 1 2 4 4 3 1 6 5 2 1 2 4 6 5 6 6 6 6 7 7 7 5 1 3 4 5 6 9 9 9 8 8 8 7 6 7 7 9 9 9 10 11 11 11 13 11 9 9 6 4 6 7 7 6 7 6 6 5 7 7 6 5 5 5 4 4 5 5 5 5 4 4 5 5 5 4 4 4 3 4 4 5 4 4 4 4 5 3 4
4 7 5 6 5 3 2 5 1 2 3 3 3 5 6 5 2 0 3 5 7 8 9 6 6 8 8 7 8 7 3 5 4 6 7 9 9 8 7 6 7 7 6 7 8 8 9 9 10 10 11 12 13 11 8 4 5 7 7 7 6 5 6 6 7 6 6 6 6 6 6 5 5 4 5 6 5 4 4 5 5 5 5 5 4 4 3 4 5 4 4 3 4 4 5 4 4
Wind_Direction
140 131 104 124 55 109 62 1 141 303 72 250 295 186 256 237 259 332 266 336 327 261 253 338 315 227 220 222 154 105 11 156 200 140 212 240 113 118 123 125 135 134 134 134 133 130 131 136 135 134 130 128 127 126 125 123 120 119 121 120 119 117 117 119 119 120 122 124 126 128 130 132 134 132 130 128 125 121 121 121 119 118 118 119 116 114 119 118 116 114 112 107 107 109 108 108 107
110 77 63 41 130 62 202 125 100 357 36 5 248 121 243 235 134 219 237 174 210 291 296 78 66 87 75 90 129 135 45 30 201 221 63 63 94 96 127 131 139 136 135 134 130 128 131 139 135 134 132 130 129 129 126 123 122 123 125 124 123 122 124 125 125 126 126 127 129 132 136 139 141 141 136 132 125 124 123 122 119 116 118 119 117 117 119 117 114 112 111 111 109 105 104 104 106
106 104 33 34 30 79 106 38 272 42 126 250 267 209 286 150 219 242 202 227 244 272 292 302 295 94 359 161 27 31 226 163 101 115 87 119 119 145 137 132 136 133 132 130 128 130 133 137 137 135 133 132 133 130 128 126 126 126 126 126 126 126 127 127 127 127 128 128 129 130 130 133 134 129 129 123 120 122 120 121 121 119 117 114 116 120 121 115 114 112 111 110 109 106 104 104 104
85 54 152 71 108 20 68 32 87 131 161 225 303 259 214 202 261 6 250 253 266 284 281 290 17 275 126 44 114 31 82 135 188 125 127 172 163 132 128 122 127 126 124 126 130 130 132 137 138 136 135 135 135 133 131 129 127 127 127 127 128 130 127 129 129 129 132 134 133 133 129 125 129 130 127 122 123 122 121 120 121 121 120 118 119 122 120 118 117 115 113 112 108 106 104 100 100
62 353 93 100 112 5 105 169 147 118 232 182 213 271 241 243 266 286 268 281 289 275 224 158 67 337 85 116 112 133 234 83 133 174 90 68 122 127 124 126 128 126 123 126 127 128 134 140 138 138 137 137 135 132 132 131 127 126 127 127 128 128 131 133 134 135 136 136 135 136 132 125 123 125 123 123 124 114 119 122 122 120 117 118 121 122 121 118 114 115 114 110 109 105 104 100 95
62 45 1 93 152 183 59 74 218 217 228 159 257 259 222 218 243 269 290 291 275 284 228 88 166 223 15 344 17 68 141 79 175 65 117 133 128 129 129 129 128 124 123 123 129 133 139 142 139 139 138 137 137 134 134 133 129 128 129 128 129 132 134 136 137 138 136 135 133 133 134 125 126 126 123 116 108 111 109 111 118 116 115 116 119 122 122 119 116 112 110 109 106 102 96 92 89
192 53 356 33 16 56 168 161 227 226 265 171 244 279 283 286 275 326 309 330 272 187 4 118 118 100 76 320 3 62 359 151 110 144 93 125 123 127 131 129 126 123 125 129 132 133 142 140 140 139 138 139 138 138 138 136 133 132 131 130 131 134 137 138 137 136 135 135 134 135 134 126 122 121 119 114 112 114 114 114 119 118 117 118 119 120 120 116 113 109 110 108 103 101 97 93 88
55 111 289 106 228 49 142 215 249 155 275 194 236 269 281 275 298 295 290 12 293 31 350 132 103 89 182 301 202 316 22 11 104 99 112 123 125 125 130 131 125 124 126 130 130 136 141 139 142 140 140 141 141 141 140 138 136 134 132 133 135 136 138 137 136 133 134 136 135 136 133 130 124 123 120 118 116 116 119 122 124 123 120 119 119 119 116 111 109 112 110 105 101 98 94 87 81
357 87 267 81 79 44 41 248 253 220 269 275 268 244 269 277 274 266 280 222 292 272 151 144 127 90 185 93 84 329 38 46 99 116 120 126 128 130 131 133 132 132 131 132 133 139 137 145 142 140 142 145 144 142 141 139 136 134 133 134 135 136 137 137 137 134 136 137 137 135 132 127 123 120 115 114 113 111 111 116 123 123 118 116 115 115 116 114 112 110 106 102 99 95 89 83 75
32 100 209 141 128 234 353 279 128 241 230 238 274 285 281 284 288 235 262 288 236 255 181 109 104 127 138 138 102 349 32 100 108 112 120 126 129 125 126 127 133 135 136 137 138 137 141 145 143 144 146 147 145 143 139 136 134 131 133 135 136 136 134 132 132 133 138 139 137 130 127 126 122 113 113 114 114 114 114 115 120 123 122 117 112 108 109 109 107 104 97 90 86 84 80 77 75
34 10 140 78 40 255 226 271 267 302 285 301 293 262 257 272 257 279 208 245 212 186 165 119 68 126 130 111 60 49 113 126 123 128 130 128 130 124 116 126 133 139 137 138 136 138 143 144 148 148 149 147 144 139 135 134 132 132 134 136 137 135 132 129 135 137 137 137 134 125 126 122 116 118 120 119 119 120 120 122 124 124 122 116 110 108 106 105 101 96 91 87 82 79 77 73 72
48 41 25 107 187 170 241 228 277 289 299 299 273 313 222 284 299 294 296 217 200 161 169 166 163 142 94 129 83 104 114 110 118 124 121 123 120 119 123 125 135 140 137 137 135 140 141 146 149 152 150 145 138 134 133 134 134 134 136 136 133 131 129 133 137 135 133 133 126 120 119 118 122 123 120 118 119 120 121 123 124 125 121 117 113 111 108 103 98 91 86 82 79 76 74 72 71
116 103 84 92 225 171 235 294 270 298 325 275 243 306 332 327 313 301 288 227 162 140 200 209 144 153 117 148 109 131 117 120 120 120 122 122 122 124 122 129 136 138 137 134 139 143 145 150 156 151 147 139 138 135 136 136 134 135 133 130 129 131 135 137 137 135 128 127 124 123 120 123 126 125 122 121 120 120 122 123 122 121 119 118 116 112 110 107 101 94 88 82 77 76 75 70 69
115 176 124 189 72 204 163 242 295 338 291 257 245 307 328 326 321 330 75 62 167 147 221 157 134 109 85 108 133 152 146 132 126 121 115 115 124 129 132 131 134 136 137 141 146 148 150 153 147 145 146 137 138 136 140 134 132 130 128 129 133 136 139 139 137 132 129 130 131 126 122 124 124 122 118 119 120 120 121 122 120 118 115 114 112 111 109 106 103 99 93 87 82 81 80 75 70
101 163 83 122 249 36 250 140 233 163 260 286 280 10 331 335 326 4 72 88 328 238 108 82 143 108 192 166 164 188 156 143 127 118 117 120 130 130 134 133 133 137 141 146 149 149 149 143 139 133 130 129 128 133 134 136 133 134 135 139 138 139 141 139 138 137 134 132 131 127 125 124 118 115 114 116 117 117 115 116 117 117 118 116 112 110 103 98 100 98 95 92 88 85 83 77 74
152 82 87 136 251 184 266 154 221 324 266 226 281 343 343 325 336 35 324 223 188 337 85 163 55 146 175 178 181 148 144 135 125 117 118 122 129 133 140 136 138 140 144 151 153 149 144 136 130 126 124 126 129 133 136 138 142 142 142 140 141 143 143 139 138 139 135 134 131 127 123 118 119 115 118 118 117 114 114 118 120 117 120 119 117 109 102 96 91 90 89 87 86 84 82 77 72
65 80 74 53 263 163 254 175 150 222 253 278 301 11 13 322 314 120 67 32 109 63 48 17 318 328 165 162 131 129 135 128 124 121 125 133 140 147 145 141 142 140 145 152 148 146 142 135 131 130 125 129 131 131 130 136 143 143 144 145 148 146 144 142 143 138 134 131 123 111 87 91 99 115 119 118 116 113 117 120 111 112 111 113 111 103 96 90 80 79 87 88 89 87 88 80 73
62 132 114 250 209 161 209 181 191 212 317 314 331 1 351 330 345 307 37 30 360 29 48 30 39 36 82 106 116 126 128 131 134 138 143 148 154 154 159 156 152 153 153 149 149 145 143 133 128 120 121 128 130 126 130 134 137 138 135 143 142 144 144 134 129 119 124 114 113 109 104 103 117 116 118 118 115 119 120 113 110 113 112 105 97 93 89 81 78 77 79 85 88 87 91 83 49
104 112 113 228 188 235 165 201 230 349 297 299 302 356 360 296 326 297 63 302 356 1 45 87 79 81 90 110 124 133 138 137 142 147 152 157 164 165 163 160 157 153 154 153 155 151 141 128 126 121 127 132 131 129 132 127 120 113 116 125 135 132 129 113 102 107 98 105 106 107 115 115 110 112 113 121 118 120 112 112 115 114 112 111 110 105 98 90 78 75 76 82 83 88 87 90 103
220 116 220 244 182 234 210 228 280 235 263 300 320 328 350 292 277 277 223 148 11 236 152 121 131 136 134 133 136 144 146 146 151 155 162 166 173 170 164 161 160 164 157 157 155 138 135 131 133 135 136 138 137 137 128 121 120 113 113 109 106 101 97 102 103 106 103 100 103 106 112 116 115 125 135 128 116 99 112 117 117 117 117 115 108 88 85 78 65 52 70 77 78 77 95 103 102
265 110 214 243 194 225 280 252 239 267 292 284 294 314 328 314 285 30 165 111 242 251 239 195 166 154 146 148 149 152 151 153 157 165 171 174 174 169 162 160 161 161 156 145 146 141 143 134 139 145 146 143 143 142 136 133 126 118 108 106 107 101 99 98 100 98 101 101 105 108 110 113 101 80 77 82 86 97 86 80 75 76 78 81 90 69 48 45 49 37 13 50 65 89 100 121 118
120 221 248 181 4 307 258 263 269 264 261 287 297 332 291 297 341 40 154 201 233 216 215 216 175 149 148 151 153 152 149 159 167 172 178 176 174 162 144 141 150 155 154 159 148 143 146 143 150 156 153 152 152 147 142 137 131 120 113 113 111 101 102 99 98 102 103 109 118 122 112 101 90 89 88 93 96 103 96 96 89 91 79 73 65 77 45 39 46 13 23 56 51 76 108 138 138
239 287 262 241 242 262 289 292 276 281 317 307 312 260 338 322 299 254 189 216 240 246 167 146 165 164 153 147 151 158 157 167 175 177 175 173 167 140 154 162 162 164 166 154 142 140 141 152 162 158 153 152 149 140 135 124 118 112 109 116 115 115 105 109 104 106 117 130 139 139 123 101 96 96 96 96 96 89 96 93 99 83 85 67 41 76 59 9 359 19 34 55 59 65 85 123 126
211 252 16 312 206 221 243 261 284 299 265 268 256 337 311 289 323 248 181 243 254 356 113 135 143 150 150 154 164 164 166 170 174 176 170 133 71 23 355 167 166 153 160 140 152 147 151 162 165 161 156 153 145 141 126 117 114 119 122 121 111 122 115 115 116 131 142 142 133 105 100 104 112 108 100 99 97 86 83 72 75 77 64 60 50 66 85 49 10 354 61 59 55 54 79 89 94
219 261 295 255 242 235 250 257 277 279 271 255 294 294 273 215 226 350 244 251 301 98 112 135 141 147 155 156 159 158 160 165 176 179 143 117 148 132 110 29 254 169 180 147 156 158 164 161 167 166 161 152 142 138 119 115 118 110 112 119 124 129 120 131 141 144 139 124 104 96 109 109 99 109 108 100 92 85 83 71 55 68 68 59 46 59 110 138 110 14 51 71 65 68 72 82 85
224 238 252 268 269 281 271 298 278 273 280 249 315 275 272 266 205 260 250 336 152 121 118 141 146 153 162 164 161 163 170 181 180 176 152 155 160 147 158 154 196 205 187 152 158 165 163 159 171 172 164 153 141 130 119 123 121 118 121 127 134 132 142 143 145 141 124 119 97 88 87 97 100 112 111 103 108 97 98 83 64 62 70 52 72 101 141 166 153 53 57 56 72 72 75 78 83
179 223 216 250 260 291 295 223 277 286 256 259 265 281 292 32 122 282 294 144 138 129 132 145 153 163 165 163 161 170 179 186 184 154 141 176 168 175 178 158 178 196 182 177 167 167 165 159 176 173 159 149 130 134 125 123 126 127 135 137 136 138 141 138 133 132 117 95 101 97 92 97 108 112 115 114 105 111 98 95 95 89 91 91 80 111 118 127 54 63 61 75 83 88 82 76 82
280 255 304 283 286 263 247 295 272 307 296 216 201 257 302 264 137 228 224 145 153 141 150 157 161 167 163 166 168 179 189 189 171 168 169 185 185 181 181 179 168 176 182 186 173 168 163 174 176 161 152 141 134 132 131 133 136 142 142 134 137 136 135 129 121 117 117 102 108 105 105 109 114 116 121 121 122 119 113 111 128 135 135 138 124 103 80 76 81 74 68 70 78 85 85 73 69
274 299 290 293 345 333 261 210 253 152 259 200 164 326 307 31 216 240 193 143 149 147 158 163 158 162 162 163 172 184 193 185 186 190 191 197 185 177 179 185 161 170 182 179 166 172 174 173 166 153 142 139 144 143 142 143 142 144 143 135 139 135 128 121 120 114 106 108 108 110 113 121 127 133 130 126 130 130 133 142 153 167 135 133 133 128 121 91 78 70 61 69 73 73 75 73 80
350 15 174 333 355 331 301 295 357 150 264 150 144 283 274 270 244 314 188 142 138 141 165 170 162 158 162 167 180 188 192 190 200 201 194 197 179 179 173 176 169 170 168 180 164 175 167 159 136 137 145 147 154 146 145 144 146 141 132 129 135 135 135 129 122 107 115 115 120 125 128 132 138 140 135 128 143 144 150 178 176 157 141 139 143 144 123 111 94 84 66 63 66 71 77 69 83
209 259 103 273 18 286 284 296 300 357 242 176 147 212 284 284 290 239 190 162 155 166 173 175 177 164 171 180 187 195 201 203 205 196 172 37 62 72 75 150 163 164 150 168 165 160 160 140 136 139 154 155 152 149 147 147 145 140 137 131 127 130 130 122 120 116 118 129 131 137 135 140 146 150 145 139 143 151 160 169 184 157 141 132 136 137 124 101 86 76 58 84 69 72 77 74 80
349 16 287 338 162 276 309 330 147 284 322 83 95 296 243 272 287 203 179 176 172 164 176 184 185 178 180 183 195 200 209 207 216 127 60 57 70 74 60 42 36 36 28 15 33 144 153 134 147 142 156 157 151 149 150 149 144 134 134 133 122 125 126 124 126 131 132 133 138 136 144 141 144 145 133 129 128 147 160 166 180 146 138 124 123 114 105 99 96 78 51 63 93 77 83 75 75
354 107 294 303 334 255 340 325 342 293 256 1 131 250 329 309 291 267 199 178 187 175 183 190 188 187 186 188 197 205 208 201 91 69 78 78 77 81 81 84 77 95 86 26 313 172 189 157 151 148 158 155 146 138 140 134 124 126 131 123 126 126 125 123 129 131 134 138 139 141 149 145 145 144 147 144 144 151 142 152 156 141 125 132 124 98 89 86 107 99 57 48 82 108 101 95 79
321 4 223 216 267 306 263 304 311 15 65 332 1 203 245 256 288 36 216 196 179 188 199 199 191 188 191 196 202 204 200 114 96 117 112 121 118 115 119 127 130 145 142 138 111 208 134 199 157 160 161 153 148 146 142 135 122 114 116 115 120 117 121 123 130 134 136 139 140 146 149 141 145 149 153 153 137 154 132 147 143 133 119 113 116 106 99 87 83 104 98 55 58 84 103 108 104
215 293 355 323 315 210 222 151 264 13 25 3 333 278 262 272 279 271 215 199 191 200 199 199 197 194 191 198 203 199 151 122 132 121 122 126 136 145 156 160 164 172 188 177 169 178 176 176 161 162 159 152 146 139 131 115 115 107 102 112 108 108 112 121 130 127 137 140 153 146 140 141 142 142 135 142 151 156 148 155 148 142 122 118 127 125 123 107 93 80 102 91 68 76 98 108 114
166 161 181 190 285 281 194 234 283 352 328 332 304 273 278 280 283 270 244 210 202 217 209 204 205 199 196 199 199 176 149 138 142 135 132 140 158 169 171 188 176 174 180 187 186 168 178 170 160 157 155 150 142 136 131 126 128 133 131 122 123 123 123 122 116 130 139 148 149 141 144 146 146 160 153 166 157 160 159 156 151 142 135 142 148 141 144 134 127 120 118 115 101 83 80 105 115
128 132 162 231 249 274 232 214 251 187 316 255 255 256 259 278 273 264 218 210 221 223 207 207 205 196 194 183 179 157 147 154 151 144 147 163 179 194 182 191 230 205 191 177 184 183 170 161 155 154 152 149 144 141 143 141 138 138 134 147 146 141 138 129 121 131 142 153 146 144 153 155 159 157 162 158 159 157 150 152 145 142 144 154 157 160 147 120 128 141 131 114 120 115 104 108 128
197 257 265 284 210 271 321 290 230 229 166 288 283 333 279 265 275 263 212 178 216 216 209 212 208 200 194 173 160 146 156 131 152 148 165 177 194 200 195 183 197 217 286 335 194 179 155 151 155 151 151 150 151 151 146 149 152 158 154 151 133 139 141 145 145 157 158 146 144 149 153 160 159 161 156 156 150 154 157 159 153 151 157 158 152 143 126 128 136 141 137 95 72 130 132 160 168
88 190 244 287 266 255 282 259 287 269 132 251 297 329 289 283 274 272 178 191 216 214 201 204 200 193 185 167 160 149 158 164 156 163 170 190 200 188 195 191 175 183 73 149 213 156 156 155 156 152 152 152 149 147 148 151 150 145 148 138 141 122 99 115 127 161 143 127 135 149 149 152 156 159 159 156 150 160 160 160 158 152 159 149 149 163 166 149 151 155 162 141 132 90 123 156 128
161 114 147 252 231 354 304 296 351 336 161 282 284 288 283 284 283 270 235 200 224 224 211 210 198 186 179 173 172 167 162 159 165 168 173 199 201 180 184 191 200 174 166 167 173 158 152 153 155 152 150 149 145 149 151 144 138 125 106 121 117 112 143 131 99 111 110 106 121 136 141 147 157 158 158 154 149 157 162 164 155 156 162 152 164 179 177 177 153 158 150 152 140 137 150 188 171
264 194 215 256 275 216 201 267 336 306 294 210 267 325 300 299 326 330 299 280 270 258 232 87 136 153 139 145 161 176 174 164 161 170 175 201 195 195 196 206 185 192 179 174 164 150 148 151 156 155 147 144 143 144 142 133 125 105 105 95 96 82 78 104 114 79 104 135 110 116 152 138 144 145 148 143 147 150 143 148 153 156 151 148 176 184 191 194 174 157 160 153 170 153 162 165 204
308 226 208 224 216 240 255 280 15 19 325 325 179 8 301 280 281 264 297 329 275 268 169 185 149 141 149 160 175 173 170 169 163 169 176 189 188 190 213 201 200 197 183 162 145 137 127 135 143 143 132 133 142 144 142 142 139 135 131 135 138 121 127 140 163 164 134 141 158 130 101 131 134 135 140 133 130 137 141 148 148 149 150 152 180 190 195 196 194 167 174 174 169 180 154 155 178
36 271 196 213 214 222 241 242 95 275 217 314 54 113 274 317 334 305 312 311 292 332 175 169 154 150 158 169 173 171 167 161 156 173 181 180 189 201 213 211 202 194 167 147 134 126 121 129 134 135 134 135 140 144 148 143 139 145 153 158 152 153 153 178 99 118 145 109 103 118 127 108 113 130 121 123 130 136 135 147 155 158 157 155 177 172 198 206 202 198 161 172 187 130 127 161 178
242 247 165 184 197 214 235 126 180 238 274 293 43 134 228 305 302 286 298 359 343 4 166 170 165 161 164 174 171 169 166 163 167 180 187 186 191 202 202 205 193 172 132 135 126 124 128 133 131 133 133 139 145 147 150 148 145 149 144 133 140 149 150 152 138 114 89 110 90 95 113 98 90 109 126 136 144 144 147 154 153 157 160 169 168 175 197 208 208 208 205 188 153 163 166 167 175
218 238 158 170 187 205 172 159 185 225 359 286 325 217 289 265 265 308 341 10 346 343 324 193 178 171 167 168 166 166 166 168 172 176 180 191 205 208 213 194 116 115 131 137 128 125 126 131 130 132 139 144 146 152 143 141 142 149 142 136 129 110 117 114 103 94 98 98 93 64 94 103 85 85 135 156 162 159 163 165 163 164 169 173 184 171 185 191 197 198 196 179 177 175 188 165 156
264 165 173 97 110 105 152 160 148 300 97 269 258 226 224 289 277 332 332 71 341 294 316 227 191 178 172 151 156 154 161 168 175 184 190 202 210 198 198 148 116 105 103 121 117 121 125 131 137 141 148 151 148 146 140 139 143 140 133 135 131 119 107 94 100 102 104 102 98 94 111 116 112 104 149 179 167 175 166 159 166 175 180 177 180 182 173 186 203 203 201 197 187 185 190 172 185
116 99 101 29 41 51 46 80 107 70 286 252 221 229 165 278 270 248 21 260 271 301 298 226 193 181 177 168 153 160 165 174 176 191 201 213 207 145 100 95 91 95 103 117 123 122 125 129 136 141 142 136 139 142 143 145 143 144 138 142 137 130 125 121 110 102 107 101 115 118 126 132 132 152 156 127 164 162 162 165 168 181 178 179 180 168 179 190 198 205 202 196 188 184 182 190 189
164 301 129 105 284 11 45 341 42 110 267 260 212 202 166 189 290 281 248 281 269 247 247 218 204 185 177 174 164 158 175 177 178 189 204 209 138 93 87 95 109 112 119 126 122 121 125 127 133 132 134 137 134 138 138 143 145 144 140 143 141 139 136 136 133 139 140 136 132 129 134 119 104 77 90 114 98 111 134 148 165 170 178 179 191 179 175 187 187 189 188 193 195 187 178 180 175
130 98 59 102 274 42 314 11 267 209 221 249 123 137 86 236 218 244 303 297 286 238 231 226 215 195 178 179 174 173 177 180 183 189 195 182 105 88 110 109 110 122 119 123 120 121 122 124 131 134 135 133 134 138 139 137 141 148 149 146 139 140 139 137 140 138 146 136 139 134 142 138 141 126 177 136 151 133 145 137 140 164 180 191 176 166 171 172 174 185 198 199 181 184 192 185 178
125 156 159 95 156 70 244 270 223 315 288 251 177 230 257 248 296 255 300 302 289 274 235 221 214 206 189 181 175 173 183 187 185 184 158 97 119 137 114 113 109 107 107 106 113 118 117 118 123 120 126 134 138 140 143 148 157 156 157 150 144 142 143 143 143 140 150 150 154 154 157 160 164 170 175 175 190 131 95 117 138 142 144 141 145 142 131 143 158 174 182 186 192 195 176 189 195
195 132 156 181 148 160 211 198 214 220 226 285 289 141 235 141 237 303 301 303 301 292 221 183 200 218 199 173 174 182 190 194 185 166 153 175 171 145 125 120 113 112 105 106 112 119 121 128 124 140 134 148 151 148 145 151 155 155 157 151 145 146 144 145 147 145 149 156 168 155 163 159 155 171 165 172 165 126 117 104 113 116 120 119 114 112 111 119 134 136 157 180 164 159 171 172 184
194 165 74 80 232 144 193 205 167 241 342 348 355 197 177 203 265 282 314 321 335 21 74 117 180 194 175 166 188 196 196 195 185 160 159 125 96 107 116 119 123 119 112 118 126 122 121 126 136 144 144 152 149 140 145 152 150 144 142 136 137 132 131 131 131 137 151 159 163 160 161 164 157 151 155 137 177 130 120 100 97 104 111 105 96 97 102 110 121 121 112 122 137 159 155 176 189
240 104 186 213 164 115 78 80 29 112 47 247 143 320 304 301 321 270 334 338 10 197 116 144 119 63 53 37 11 334 332 341 337 25 87 102 91 87 95 107 112 110 102 104 123 126 121 127 132 133 132 136 149 147 134 123 116 119 119 124 128 132 143 151 154 156 158 157 148 153 147 148 136 139 144 132 126 78 93 105 100 100 86 81 80 79 91 103 108 112 127 132 145 180 168 185 174
92 174 240 133 110 114 132 206 350 68 179 255 51 237 303 27 268 342 338 329 14 11 67 113 65 67 69 78 70 52 54 52 39 51 43 53 71 77 79 86 97 108 106 96 95 107 116 126 134 135 137 134 124 117 113 113 109 105 114 118 127 148 154 148 146 146 135 126 115 120 117 127 149 147 134 124 114 100 73 73 96 85 84 71 70 63 82 98 101 93 115 114 161 165 144 141 183
157 198 180 117 276 252 319 93 216 193 266 268 324 288 249 176 252 352 191 344 0 8 22 55 64 83 88 67 59 78 90 82 78 68 59 57 71 82 89 91 98 108 111 108 102 98 106 114 131 136 131 125 124 115 111 104 107 121 133 142 143 138 126 116 108 111 121 129 139 145 140 141 129 131 121 125 118 100 97 75 90 97 82 80 73 68 69 79 97 106 98 114 104 122 129 158 213
5 99 95 13 108 158 127 201 171 120 230 62 291 42 243 210 217 192 261 17 12 21 34 35 45 23 28 68 67 61 77 96 101 108 116 119 102 103 110 108 105 104 107 111 111 108 101 92 74 63 64 60 57 58 56 59 126 141 143 131 112 109 111 114 120 133 137 145 151 146 138 138 153 132 123 125 118 116 114 105 94 103 93 87 89 74 87 89 77 69 70 80 69 98 101 129 132
104 138 273 357 23 211 103 37 89 177 169 181 166 298 276 265 226 233 319 6 29 40 76 62 44 39 31 41 68 23 31 88 97 98 100 98 104 97 92 99 98 95 98 98 100 101 102 98 99 102 105 100 100 112 134 167 154 123 122 124 118 113 113 115 114 131 141 143 140 135 140 146 129 134 136 127 122 122 113 113 110 102 103 95 96 85 82 105 93 85 58 80 74 93 106 98 112
180 156 193 171 119 125 161 252 21 84 102 204 134 239 268 271 292 348 46 37 55 75 90 78 71 63 44 41 53 75 23 56 79 96 84 95 97 85 85 89 102 99 94 103 107 104 115 122 125 133 134 131 136 148 162 124 124 143 138 114 108 111 123 129 130 138 143 137 132 135 142 136 138 150 140 134 127 124 115 112 105 106 102 97 88 82 71 103 105 93 74 67 81 82 95 96 99